Location: Melbourne
(37.8666°S, 145.1333°E)
Time: 02:54:45

Hubble Space Telescope - Pass Details

Date: 22 February 2018
Orbit: 537 x 541 km, 28.5° (Epoch: 20 March)

Event Time Altitude Azimuth Distance (km) Brightness Sun altitude
Rises 20:37:37 0° 287° (WNW) 2,693 5.4 -6.2°
Reaches altitude 10° 20:40:24 10° 305° (NW) 1,799 4.0 -6.7°
Maximum altitude 20:43:21 19° 350° (N) 1,330 2.7 -7.3°
Drops below altitude 10° 20:46:17 10° 35° (NE) 1,794 3.0 -7.8°
Enters shadow 20:47:04 - 42° (NE) 2,023 3.2 -8.0°
